This is the latest recevied weather packets stored in our database for station/object ZL1CTS-13. If no packets are shown the sender has not sent any weather packets the latest 10 day(s).
| Time | Temp. | Humidity | Pressure | Rain* | Wind** | Luminosity | Snow |
|---|---|---|---|---|---|---|---|
| 1777824605 | 11.11° C | 98% | 1024.3 hPa | 0 mm | - | - | - |
| 1777824005 | 11.11° C | 98% | 1024.4 hPa | 0 mm | - | - | - |
| 1777823404 | 10° C | 99% | 1024.4 hPa | 0 mm | - | - | - |
| 1777822804 | 10.56° C | 99% | 1024.5 hPa | 0 mm | - | - | - |
| 1777822204 | 10.56° C | 99% | 1024.6 hPa | 0 mm | - | - | - |
| 1777821604 | 10.56° C | 99% | 1024.6 hPa | 0 mm | - | - | - |
| 1777821004 | 10.56° C | 99% | 1024.6 hPa | 0 mm | - | - | - |
| 1777820404 | 10° C | 99% | 1024.9 hPa | 0 mm | - | - | - |
| 1777819804 | 9.44° C | 99% | 1024.9 hPa | 0 mm | - | - | - |
| 1777819203 | 9.44° C | 99% | 1025 hPa | 0 mm | - | - | - |
| 1777818604 | 9.44° C | 99% | 1024.9 hPa | 0 mm | - | - | - |
| 1777818003 | 9.44° C | 99% | 1025.1 hPa | 0 mm | - | - | - |
| 1777817404 | 10° C | 99% | 1025.1 hPa | 0 mm | - | - | - |
| 1777816804 | 9.44° C | 99% | 1025.2 hPa | 0 mm | - | - | - |
| 1777816204 | 9.44° C | 99% | 1025.2 hPa | 0 mm | - | - | - |
| 1777815606 | 8.89° C | 99% | 1025.2 hPa | 0 mm | - | - | - |
| 1777815004 | 9.44° C | 99% | 1025.3 hPa | 0 mm | - | - | - |
| 1777814404 | 8.89° C | 99% | 1025.1 hPa | 0 mm | - | - | - |
| 1777813804 | 8.89° C | 99% | 1025.1 hPa | 0 mm | - | - | - |
| 1777813204 | 8.89° C | 99% | 1025 hPa | 0 mm | - | - | - |
| 1777812604 | 8.89° C | 99% | 1024.8 hPa | 0 mm | - | - | - |
| 1777812003 | 8.89° C | 99% | 1025.1 hPa | 0 mm | - | - | - |
| 1777811404 | 8.89° C | 99% | 1024.8 hPa | 0 mm | - | - | - |
| 1777810804 | 8.89° C | 99% | 1024.9 hPa | 0 mm | - | - | - |
| 1777810204 | 8.89° C | 99% | 1025 hPa | 0 mm | - | - | - |
* Rain latest hour (hover to see other rain measurements)
** Current wind speed in m/s (hover to see current wind gust speed)